DW4604 Weather Reports


time (UTC)temp
C
wind
direction
speed
KPH
gust
KPH
rain 1hr
cm
rain 24hr
cm
rain mn
cm
humidity
%
barometer
mb
20260509064940 12 0 0.0 0.0 0.00 0.00 0.00 74 1018.4
20260509063940 11 0 0.0 0.0 0.00 0.00 0.00 80 1018.4
20260509062940 10 0 0.0 0.0 0.00 0.03 0.00 82 1018.5
20260509062441 10 0 0.0 0.0 0.00 0.03 0.00 82 1018.5
20260509061940 11 0 0.0 0.0 0.00 0.05 0.00 80 1018.4
20260509061440 11 0 0.0 0.0 0.00 0.05 0.00 80 1018.4
20260509060440 11 0 0.0 0.0 0.00 0.08 0.00 81 1018.4
20260509055940 11 0 0.0 0.0 0.00 0.10 0.00 81 1018.3
20260509055440 11 0 0.0 0.0 0.00 0.10 0.00 84 1018.4
20260509054940 10 0 0.0 0.0 0.00 0.10 0.00 84 1018.4
20260509054441 10 0 0.0 0.0 0.00 0.10 0.00 84 1018.3
20260509053940 10 0 0.0 0.0 0.00 0.10 0.00 85 1018.3
20260509053440 10 0 0.0 0.0 0.00 0.10 0.00 86 1018.3
20260509052941 10 0 0.0 0.0 0.00 0.10 0.00 86 1018.3
20260509052440 10 0 0.0 0.0 0.00 0.10 0.00 87 1018.3
20260509051940 10 0 0.0 0.0 0.00 0.10 0.00 88 1018.3
20260509051440 10 0 0.0 0.0 0.00 0.10 0.00 88 1018.4
20260509050940 9 0 0.0 0.0 0.00 0.10 0.00 89 1018.3
20260509050441 9 0 0.0 0.0 0.00 0.10 0.00 89 1018.3
20260509045940 9 0 0.0 0.0 0.00 0.10 0.00 89 1018.4
20260509045440 9 0 0.0 0.0 0.00 0.10 0.00 89 1018.3
20260509044941 8 0 0.0 0.0 0.00 0.10 0.00 89 1018.3
20260509044440 9 0 0.0 0.0 0.00 0.10 0.00 90 1018.3
20260509043440 8 0 0.0 0.0 0.00 0.10 0.00 90 1018.2
20260509042942 8 0 0.0 0.0 0.00 0.10 0.00 91 1018.2
20260509041941 8 0 0.0 0.0 0.00 0.10 0.00 91 1018.2
20260509041442 8 0 0.0 0.0 0.00 0.10 0.00 91 1018.2
20260509040942 8 0 0.0 0.0 0.00 0.13 0.00 91 1018.2
20260509040440 8 0 0.0 0.0 0.00 0.13 0.00 92 1018.2
20260509035940 8 0 0.0 0.0 0.00 0.13 0.00 92 1018.1
20260509035440 8 0 0.0 0.0 0.00 0.13 0.00 92 1018.2
20260509034940 8 0 0.0 0.0 0.00 0.13 0.00 92 1018.1
20260509033940 8 0 0.0 0.0 0.00 0.13 0.00 92 1018.1
20260509033441 8 0 0.0 0.0 0.00 0.13 0.00 92 1018.1
20260509032941 8 0 0.0 0.0 0.00 0.13 0.00 92 1018.1
20260509032441 8 0 0.0 0.0 0.00 0.13 0.00 92 1018.2
20260509031441 8 0 0.0 0.0 0.00 0.13 0.00 92 1018.1
20260509030940 8 0 0.0 0.0 0.00 0.13 0.00 92 1018.1
20260509030440 8 0 0.0 0.0 0.00 0.13 0.00 91 1018.1
20260509025941 8 0 0.0 0.0 0.00 0.15 0.00 91 1018.1
20260509025442 8 0 0.0 0.0 0.00 0.15 0.00 91 1018.0
20260509024440 8 0 0.0 0.0 0.00 0.15 0.00 91 1018.0
20260509023940 8 0 0.0 0.0 0.00 0.15 0.00 91 1018.0
20260509023442 8 0 0.0 0.0 0.00 0.15 0.00 91 1018.0
20260509022941 8 0 0.0 0.0 0.00 0.15 0.00 91 1018.1
20260509020941 8 0 0.0 0.0 0.00 0.18 0.00 91 1018.1
20260509020440 8 0 0.0 0.0 0.00 0.20 0.00 90 1018.0
20260509015941 8 0 0.0 0.0 0.00 0.20 0.00 91 1018.0
20260509014442 8 0 0.0 0.0 0.00 0.25 0.00 90 1018.0
20260509013442 8 0 0.0 0.0 0.00 0.33 0.00 90 1018.1
20260509012442 8 0 0.0 0.0 0.00 0.43 0.00 90 1018.0
20260509011941 8 0 0.0 0.0 0.00 0.46 0.00 90 1018.1
20260509011441 8 0 0.0 0.0 0.00 0.51 0.00 90 1018.1
20260509010941 8 0 0.0 0.0 0.00 0.53 0.00 90 1018.0
20260509010441 8 0 0.0 0.0 0.00 0.61 0.00 90 1018.0
20260509004942 8 0 0.0 0.0 0.00 0.79 0.00 90 1018.2
20260509004441 8 0 0.0 0.0 0.00 0.86 0.00 90 1018.2
20260509003942 8 0 0.0 0.0 0.00 0.89 0.00 90 1018.2
20260509003441 8 0 0.0 0.0 0.00 0.94 0.00 90 1018.2
20260509002943 8 0 0.0 0.0 0.00 0.97 0.00 90 1018.3
20260509002441 8 0 0.0 0.0 0.00 0.99 0.00 91 1018.3
20260509001941 8 0 0.0 0.0 0.00 0.99 0.00 91 1018.4
20260509001441 8 0 0.0 0.0 0.00 0.99 0.00 90 1018.4
20260509000942 8 0 0.0 0.0 0.00 0.99 0.00 91 1018.4
20260509000441 9 0 0.0 0.0 0.00 0.99 0.00 91 1018.5
20260508235941 9 0 0.0 0.0 0.00 1.02 0.00 90 1018.5
20260508235442 9 0 0.0 0.0 0.00 1.12 0.00 90 1018.5
20260508234441 9 0 0.0 0.0 0.00 1.22 0.00 90 1018.5
20260508233941 9 0 0.0 0.0 0.00 1.22 0.00 90 1018.5
20260508233442 9 0 0.0 0.0 0.00 1.22 0.00 90 1018.5
20260508232941 9 0 0.0 0.0 0.00 1.22 0.00 90 1018.5
20260508232442 9 0 0.0 0.0 0.00 1.22 0.00 89 1018.5
20260508231942 9 0 0.0 0.0 0.00 1.22 0.00 90 1018.6
20260508231442 9 0 0.0 0.0 0.00 1.22 0.00 90 1018.6
20260508230941 9 0 0.0 0.0 0.00 1.22 0.00 89 1018.5
20260508225942 9 0 0.0 0.0 0.00 1.22 0.00 89 1018.6
20260508225442 9 0 0.0 0.0 0.00 1.22 0.00 89 1018.6
20260508224943 9 0 0.0 0.0 0.00 1.22 0.00 89 1018.6
20260508224442 9 0 0.0 0.0 0.00 1.22 0.00 89 1018.6
20260508223943 9 0 0.0 0.0 0.00 1.22 0.00 89 1018.6
20260508223442 9 0 0.0 0.0 0.00 1.22 0.00 88 1018.6
20260508222942 9 0 0.0 0.0 0.00 1.22 0.00 88 1018.6
20260508222443 9 0 0.0 0.0 0.00 1.22 0.00 88 1018.6
20260508221942 9 0 0.0 0.0 0.00 1.22 0.00 88 1018.5
20260508221442 9 0 0.0 0.0 0.00 1.22 0.00 88 1018.5
20260508220942 10 0 0.0 0.0 0.00 1.22 0.00 88 1018.4
20260508220441 9 0 0.0 0.0 0.00 1.22 0.00 88 1018.4
20260508215943 9 0 0.0 0.0 0.00 1.22 0.00 88 1018.4
20260508215443 9 0 0.0 0.0 0.00 1.22 1.22 87 1018.3
20260508214942 10 0 0.0 0.0 0.00 1.22 1.22 87 1018.4
20260508214442 10 0 0.0 0.0 0.00 1.22 1.22 87 1018.4
20260508213442 10 0 0.0 0.0 0.00 1.22 1.22 87 1018.4
20260508212442 10 0 0.0 0.0 0.00 1.22 1.22 87 1018.4
20260508211943 10 0 0.0 0.0 0.00 1.22 1.22 87 1018.4
20260508211443 10 0 0.0 0.0 0.00 1.22 1.22 87 1018.3
20260508210941 10 0 0.0 0.0 0.00 1.22 1.22 87 1018.3
20260508210441 10 0 0.0 0.0 0.00 1.22 1.22 87 1018.2
20260508205942 10 0 0.0 0.0 0.00 1.22 1.22 87 1018.2
20260508205442 10 0 0.0 0.0 0.00 1.22 1.22 87 1018.3
20260508204943 10 0 0.0 0.0 0.00 1.22 1.22 87 1018.2
20260508203942 10 0 0.0 0.0 0.00 1.22 1.22 87 1018.2
20260508203442 10 0 0.0 0.0 0.00 1.22 1.22 87 1018.1
20260508202943 10 0 0.0 0.0 0.00 1.22 1.22 87 1018.1
20260508202443 10 0 0.0 0.0 0.00 1.24 1.22 87 1018.1
20260508201943 10 0 0.0 0.0 0.00 1.24 1.22 87 1018.1
20260508201442 10 0 0.0 0.0 0.00 1.24 1.22 87 1018.0
20260508200943 10 0 0.0 0.0 0.00 1.24 1.22 87 1017.8
20260508195943 10 0 0.0 0.0 0.00 1.24 1.22 86 1017.8
20260508195442 10 0 0.0 0.0 0.00 1.24 1.22 86 1017.8
20260508194942 10 0 0.0 0.0 0.00 1.24 1.22 87 1017.9
20260508192443 10 0 0.0 0.0 0.00 1.24 1.22 88 1017.9
20260508191942 10 0 0.0 0.0 0.00 1.24 1.22 88 1017.8
20260508191443 10 0 0.0 0.0 0.00 1.24 1.22 88 1017.8
20260508190943 11 0 0.0 0.0 0.00 1.24 1.22 88 1017.8
20260508190442 11 0 0.0 0.0 0.00 1.24 1.22 87 1017.8
20260508185943 11 0 0.0 0.0 0.00 1.24 1.22 87 1017.7
20260508185443 11 0 0.0 0.0 0.00 1.24 1.22 87 1017.7
20260508183442 11 0 0.0 0.0 0.00 1.27 1.22 86 1017.5
20260508182942 11 0 0.0 0.0 0.00 1.32 1.22 86 1017.4
20260508182442 11 0 0.0 0.0 0.00 1.37 1.22 86 1017.3
20260508181943 11 0 0.0 0.0 0.00 1.52 1.22 86 1017.3
20260508181443 11 0 0.0 0.0 0.00 1.63 1.22 86 1017.3
20260508180443 11 0 0.0 0.0 0.00 1.75 1.22 87 1017.1
20260508175943 11 0 0.0 0.0 0.00 1.75 1.22 86 1017.1
20260508173943 11 0 0.0 0.0 0.00 1.78 1.22 87 1016.9
20260508173443 12 0 0.0 0.0 0.00 1.78 1.22 86 1016.9
20260508172443 12 0 0.0 0.0 0.00 1.80 1.22 85 1016.8
20260508171943 12 0 0.0 0.0 0.00 1.83 1.22 85 1016.7
20260508170943 12 0 0.0 0.0 0.00 2.11 1.22 84 1016.7
20260508170443 12 0 0.0 0.0 0.00 2.21 1.22 84 1016.8
20260508165942 12 0 0.0 0.0 0.00 2.21 1.22 84 1016.8
20260508165442 12 0 0.0 0.0 0.00 2.21 1.22 84 1016.7
20260508164943 12 0 0.0 0.0 0.00 2.21 1.22 82 1016.7
20260508164443 12 0 0.0 0.0 0.00 2.21 1.22 82 1016.8
20260508163443 12 0 0.0 0.0 0.00 2.21 1.22 82 1016.7
20260508162942 12 0 0.0 0.0 0.00 2.21 1.22 84 1016.7
20260508162444 12 0 0.0 0.0 0.00 2.21 1.22 82 1016.7
20260508161943 12 0 0.0 0.0 0.00 2.21 1.22 82 1016.6
20260508160943 12 0 0.0 0.0 0.00 2.21 1.22 81 1016.7
20260508160443 12 0 0.0 0.0 0.00 2.21 1.22 81 1016.6
20260508155944 12 0 0.0 0.0 0.00 2.21 1.22 80 1016.7
20260508155443 12 0 0.0 0.0 0.00 2.21 1.22 81 1016.7
20260508154943 12 0 0.0 0.0 0.00 2.21 1.22 81 1016.8
20260508154443 12 0 0.0 0.0 0.00 2.21 1.22 80 1016.8
20260508152943 13 0 0.0 0.0 0.00 2.21 1.22 79 1016.8
20260508152443 12 0 0.0 0.0 0.00 2.21 1.22 81 1016.8
20260508151943 12 0 0.0 0.0 0.00 2.21 1.22 81 1016.8
20260508151442 12 0 0.0 0.0 0.00 2.21 1.22 81 1016.8
20260508150443 12 0 0.0 0.0 0.00 2.21 1.22 82 1016.7
20260508145943 12 0 0.0 0.0 0.00 2.21 1.22 83 1016.7
20260508145443 12 0 0.0 0.0 0.00 2.21 1.22 81 1016.7
20260508144943 12 0 0.0 0.0 0.00 2.21 1.22 82 1016.7
20260508143443 12 0 0.0 0.0 0.00 2.21 1.22 83 1016.7
20260508142943 12 0 0.0 0.0 0.00 2.21 1.22 83 1016.8
20260508142444 12 0 0.0 0.0 0.00 2.21 1.22 84 1016.7
20260508141943 11 0 0.0 0.0 0.00 2.21 1.22 84 1016.8
20260508141443 12 0 0.0 0.0 0.00 2.21 1.22 84 1016.8
20260508140945 12 0 0.0 0.0 0.00 2.21 1.22 84 1016.7
20260508140443 12 0 0.0 0.0 0.00 2.21 1.22 84 1016.6
20260508135943 12 0 0.0 0.0 0.00 2.21 1.22 83 1016.7
20260508134943 12 0 0.0 0.0 0.00 2.21 1.22 85 1016.7
20260508134443 12 0 0.0 0.0 0.00 2.21 1.22 85 1016.7
20260508133944 12 0 0.0 0.0 0.00 2.21 1.22 85 1016.6
20260508133444 11 0 0.0 0.0 0.00 2.21 1.22 85 1016.7
20260508132943 11 0 0.0 0.0 0.00 2.21 1.22 86 1016.7
20260508132445 11 0 0.0 0.0 0.00 2.21 1.22 86 1016.7
20260508131943 11 0 0.0 0.0 0.00 2.21 1.22 86 1016.9
20260508131443 11 0 0.0 0.0 0.00 2.21 1.22 85 1016.9
20260508130944 12 0 0.0 0.0 0.00 2.21 1.22 86 1016.9
20260508130444 11 0 0.0 0.0 0.00 2.21 1.22 86 1016.8
20260508125943 11 0 0.0 0.0 0.00 2.21 1.22 87 1016.8
20260508125443 11 0 0.0 0.0 0.00 2.21 1.22 86 1016.9
20260508124943 11 0 0.0 0.0 0.00 2.21 1.22 86 1016.9
20260508123944 11 0 0.0 0.0 0.00 2.21 1.22 88 1016.9
20260508123444 11 0 0.0 0.0 0.00 2.21 1.22 88 1016.9
20260508122943 11 0 0.0 0.0 0.00 2.21 1.22 88 1016.9
20260508122444 12 0 0.0 0.0 0.00 2.21 1.22 88 1016.9
20260508121945 11 0 0.0 0.0 0.00 2.21 1.22 88 1016.9
20260508120943 11 0 0.0 0.0 0.00 2.21 1.22 89 1017.0
20260508115944 11 0 0.0 0.0 0.00 2.21 1.22 90 1017.0
20260508114944 11 0 0.0 0.0 0.00 2.21 1.22 90 1016.9
20260508113944 11 0 0.0 0.0 0.00 2.21 1.22 90 1016.9
20260508113444 11 0 0.0 0.0 0.00 2.21 1.22 91 1017.0
20260508112944 11 0 0.0 0.0 0.00 2.21 1.22 91 1016.9
20260508112444 11 0 0.0 0.0 0.00 2.21 1.22 91 1016.8
20260508110943 11 0 0.0 0.0 0.00 2.21 1.22 91 1016.7
20260508110443 11 0 0.0 0.0 0.00 2.21 1.22 90 1016.7
20260508105944 11 0 0.0 0.0 0.00 2.21 1.22 90 1016.7
20260508105444 11 0 0.0 0.0 0.00 2.21 1.22 91 1016.7
20260508104943 11 0 0.0 0.0 0.00 2.21 1.22 91 1016.7
20260508104444 11 0 0.0 0.0 0.00 2.21 1.22 91 1016.6
20260508103945 11 0 0.0 0.0 0.00 2.21 1.22 91 1016.6
20260508103444 11 0 0.0 0.0 0.00 2.21 1.22 92 1016.6
20260508102944 11 0 0.0 0.0 0.00 2.21 1.22 93 1016.6
20260508102445 11 0 0.0 0.0 0.00 2.21 1.22 92 1016.5
20260508101944 11 0 0.0 0.0 0.00 2.21 1.22 93 1016.5
20260508101444 11 0 0.0 0.0 0.00 2.21 1.22 93 1016.6
20260508100944 11 0 0.0 0.0 0.00 2.21 1.22 93 1016.5
20260508100444 11 0 0.0 0.0 0.00 2.21 1.22 93 1016.5
20260508095945 11 0 0.0 0.0 0.00 2.21 1.22 93 1016.6
20260508095444 11 0 0.0 0.0 0.00 2.21 1.22 94 1016.6
20260508094944 11 0 0.0 0.0 0.00 2.21 1.22 94 1016.6
20260508094444 11 0 0.0 0.0 0.00 2.21 1.22 94 1016.6
20260508093944 11 0 0.0 0.0 0.00 2.21 1.22 94 1016.6
20260508093444 11 0 0.0 0.0 0.00 2.21 1.22 94 1016.6
20260508092945 11 0 0.0 0.0 0.00 2.21 1.22 95 1016.7
20260508092446 10 0 0.0 0.0 0.00 2.21 1.22 94 1016.6
20260508091944 10 0 0.0 0.0 0.00 2.21 1.22 95 1016.6
20260508091444 10 0 0.0 0.0 0.00 2.21 1.22 95 1016.6
20260508090944 10 0 0.0 0.0 0.00 2.21 1.22 95 1016.6
20260508090445 10 0 0.0 0.0 0.00 2.21 1.22 95 1016.6
20260508084944 10 0 0.0 0.0 0.00 2.21 1.22 95 1016.5
20260508084444 10 0 0.0 0.0 0.00 2.21 1.22 95 1016.5
20260508083944 10 0 0.0 0.0 0.00 2.21 1.22 95 1016.5
20260508083445 10 0 0.0 0.0 0.00 2.21 1.22 95 1016.5
20260508082445 10 0 0.0 0.0 0.00 2.21 1.22 95 1016.4
20260508081945 10 0 0.0 0.0 0.00 2.21 1.22 95 1016.4
20260508081444 10 0 0.0 0.0 0.00 2.21 1.22 95 1016.3
20260508080944 10 0 0.0 0.0 0.00 2.21 1.22 95 1016.2
20260508075444 10 0 0.0 0.0 0.00 2.21 1.22 95 1016.0
20260508074946 10 0 0.0 0.0 0.00 2.21 1.22 95 1015.9
20260508074445 10 0 0.0 0.0 0.00 2.21 1.22 95 1015.9
20260508073444 10 0 0.0 0.0 0.00 2.21 1.22 95 1015.7
20260508072944 10 0 0.0 0.0 0.03 2.21 1.22 95 1015.8
20260508072445 10 0 0.0 0.0 0.03 2.21 1.22 95 1015.8
20260508071444 10 0 0.0 0.0 0.05 2.21 1.22 95 1015.7
20260508070945 10 0 0.0 0.0 0.05 2.21 1.22 95 1015.6
20260508065946 10 0 0.0 0.0 0.10 2.21 1.22 95 1015.6
20260508065446 10 0 0.0 0.0 0.10 2.21 1.22 95 1015.4